Sigfox identifier Datetime Temperature Humidity SNR
002F05C8 2019-04-23 14:48:37 15.9 33 20.2
002F05C8 2019-04-23 14:17:13 15.8 33 20.3
002F05C8 2019-04-23 13:45:51 15.8 33 20.3
002F05C8 2019-04-23 13:14:27 15.8 33 20.4
002F05C8 2019-04-23 12:43:02 15.6 33 20.5
002F05C8 2019-04-23 12:11:38 15.6 33 20.6
002F05C8 2019-04-23 11:40:14 15.6 32 20.7
002F05C8 2019-04-23 11:08:53 15.6 32 20.9
002F05C8 2019-04-23 10:37:28 15.6 32 20.9
002F05C8 2019-04-23 10:06:04 15.6 32 20.7
002F05C8 2019-04-23 09:34:41 15.6 32 20.5
002F05C8 2019-04-23 09:03:18 15.6 32 20.4
002F05C8 2019-04-23 08:31:54 15.6 32 19.9
002F05C8 2019-04-23 08:00:31 15.6 32 19.6
002F05C8 2019-04-23 07:29:08 15.6 32 19.6
002F05C8 2019-04-23 06:57:45 15.6 32 19.7
002F05C8 2019-04-23 06:26:21 15.6 32 19.7
002F05C8 2019-04-23 05:54:57 15.6 32 19.7
002F05C8 2019-04-23 05:23:32 15.6 32 19.7
002F05C8 2019-04-23 04:52:08 15.6 32 19.7
002F05C8 2019-04-23 04:20:45 15.6 32 19.7
002F05C8 2019-04-23 03:49:22 15.6 32 19.7
002F05C8 2019-04-23 03:17:57 15.6 32 19.7
002F05C8 2019-04-23 02:46:33 15.6 32 19.6
002F05C8 2019-04-23 02:15:09 15.6 32 19.6
002F05C8 2019-04-23 01:43:45 15.7 32 19.6
002F05C8 2019-04-23 01:12:20 15.8 32 19.7
002F05C8 2019-04-23 00:40:56 15.8 32 19.8
002F05C8 2019-04-23 00:09:32 15.8 32 19.8
002F05C8 2019-04-22 23:38:09 15.8 32 20
002F05C8 2019-04-22 23:06:44 15.8 32 19.9
002F05C8 2019-04-22 22:35:20 15.8 32 19.9
002F05C8 2019-04-22 22:03:55 15.8 32 19.8
002F05C8 2019-04-22 21:32:31 15.8 32 19.8
002F05C8 2019-04-22 21:01:08 15.8 32 19.7
002F05C8 2019-04-22 20:29:44 15.8 32 19.6
002F05C8 2019-04-22 19:58:21 15.8 32 19.6
002F05C8 2019-04-22 19:26:57 15.8 32 19.5
002F05C8 2019-04-22 18:55:32 15.8 32 19.5
002F05C8 2019-04-22 18:24:08 15.8 32 19.4
002F05C8 2019-04-22 17:52:44 15.8 32 19.4
002F05C8 2019-04-22 17:21:20 15.8 32 19.4
002F05C8 2019-04-22 16:49:56 15.8 32 19.4
002F05C8 2019-04-22 16:18:33 15.8 32 19.4
002F05C8 2019-04-22 15:47:08 15.6 32 19.4
002F05C8 2019-04-22 15:15:45 15.6 32 19.3
002F05C8 2019-04-22 14:44:22 15.6 32 19.2
002F05C8 2019-04-22 14:12:59 15.6 32 19.2
002F05C8 2019-04-22 13:41:36 15.6 32 19.3
002F05C8 2019-04-22 13:10:13 15.6 32 19.3
002F05C8 2019-04-22 12:38:50 15.6 32 19.2
002F05C8 2019-04-22 12:07:26 15.6 32 19.1
002F05C8 2019-04-22 11:36:02 15.6 32 19
002F05C8 2019-04-22 11:04:38 15.6 32 18.9
002F05C8 2019-04-22 10:33:14 15.6 32 18.7
002F05C8 2019-04-22 10:01:50 15.6 32 18.5
002F05C8 2019-04-22 09:30:26 15.6 32 18.7
002F05C8 2019-04-22 08:59:00 15.6 31 18.6
002F05C8 2019-04-22 08:27:35 15.6 31 18.7
002F05C8 2019-04-22 07:56:10 15.6 31 18.8
002F05C8 2019-04-22 07:24:45 15.6 31 18.9
002F05C8 2019-04-22 06:53:21 15.6 31 19.1
002F05C8 2019-04-22 06:21:58 15.6 31 19.2
002F05C8 2019-04-22 05:50:33 15.6 31 19.4
002F05C8 2019-04-22 05:19:08 15.6 31 19.5
002F05C8 2019-04-22 04:47:42 15.6 31 19.4
002F05C8 2019-04-22 04:16:17 15.6 31 19.5
002F05C8 2019-04-22 03:44:53 15.6 31 19.5
002F05C8 2019-04-22 03:13:29 15.6 31 19.5
002F05C8 2019-04-22 02:42:06 15.6 31 19.6
002F05C8 2019-04-22 02:10:42 15.5 31 19.7
002F05C8 2019-04-22 01:39:18 15.5 31 19.8
002F05C8 2019-04-22 01:07:54 15.6 31 19.9
002F05C8 2019-04-22 00:36:31 15.4 31 20
002F05C8 2019-04-22 00:05:05 15.5 31 20.1
002F05C8 2019-04-21 23:33:40 15.4 31 20.2
002F05C8 2019-04-21 23:02:16 15.5 31 20.2
002F05C8 2019-04-21 22:30:51 15.4 31 20.3
002F05C8 2019-04-21 21:59:28 15.5 31 20.2
002F05C8 2019-04-21 21:28:05 15.4 31 20.3
002F05C8 2019-04-21 20:56:40 15.4 31 20.5
002F05C8 2019-04-21 20:25:16 15.4 31 20.4
002F05C8 2019-04-21 19:53:53 15.5 31 20.3
002F05C8 2019-04-21 19:22:30 15.5 31 20.2
002F05C8 2019-04-21 18:51:05 15.4 31 20.1
002F05C8 2019-04-21 18:19:41 15.5 31 20
002F05C8 2019-04-21 17:48:17 15.4 31 19.8
002F05C8 2019-04-21 17:16:52 15.5 31 19.8
002F05C8 2019-04-21 16:45:28 15.4 31 19.6
002F05C8 2019-04-21 16:14:03 15.5 31 19.5
002F05C8 2019-04-21 15:42:39 15.4 31 19.4
002F05C8 2019-04-21 15:11:14 15.4 31 19.3
002F05C8 2019-04-21 14:39:49 15.5 31 19.3
002F05C8 2019-04-21 14:08:26 15.5 31 19.2
002F05C8 2019-04-21 13:37:00 15.5 31 19.1
002F05C8 2019-04-21 13:05:36 15.6 31 19
002F05C8 2019-04-21 12:34:11 15.6 31 18.8
002F05C8 2019-04-21 12:02:46 15.6 31 18.7
002F05C8 2019-04-21 11:31:22 15.6 31 18.5
002F05C8 2019-04-21 10:59:58 15.6 31 18.2
002F05C8 2019-04-21 10:28:33 15.6 31 18.2
002F05C8 2019-04-21 09:57:09 15.6 31 18.1
002F05C8 2019-04-21 09:25:46 15.6 31 18.1
002F05C8 2019-04-21 08:54:22 15.6 31 18.2
002F05C8 2019-04-21 08:22:57 15.6 31 18.2
002F05C8 2019-04-21 07:51:32 15.6 30 18.1
002F05C8 2019-04-21 07:20:07 15.6 30 18.3
002F05C8 2019-04-21 06:48:42 15.6 30 18.4
002F05C8 2019-04-21 06:17:17 15.6 30 18.4
002F05C8 2019-04-21 05:45:52 15.6 30 18.5
002F05C8 2019-04-21 05:14:28 15.6 30 18.6
002F05C8 2019-04-21 04:43:05 15.6 30 18.7
002F05C8 2019-04-21 04:11:40 15.6 30 18.7
002F05C8 2019-04-21 03:40:16 15.6 30 18.8
002F05C8 2019-04-21 03:08:52 15.6 30 18.9
002F05C8 2019-04-21 02:37:28 15.6 30 19.1
002F05C8 2019-04-21 02:06:04 15.6 30 19.2
002F05C8 2019-04-21 01:34:39 15.6 30 19.3
002F05C8 2019-04-21 01:03:17 15.6 30 19.3
002F05C8 2019-04-21 00:31:50 15.6 30 19.3
002F05C8 2019-04-21 00:00:26 15.6 30 19.3
002F05C8 2019-04-20 23:29:02 15.6 30 19.5
002F05C8 2019-04-20 22:57:37 15.6 30 19.5
002F05C8 2019-04-20 22:26:12 15.6 30 19.5
002F05C8 2019-04-20 21:54:47 15.6 30 19.7
002F05C8 2019-04-20 21:23:23 15.6 30 19.7
002F05C8 2019-04-20 20:51:58 15.6 30 19.9
002F05C8 2019-04-20 20:20:33 15.6 30 19.8
002F05C8 2019-04-20 19:49:07 15.6 30 19.8
002F05C8 2019-04-20 19:17:42 15.6 30 19.7
002F05C8 2019-04-20 18:46:18 15.6 30 19.7
002F05C8 2019-04-20 18:14:54 15.6 30 19.5
002F05C8 2019-04-20 17:43:29 15.6 30 19.5
002F05C8 2019-04-20 17:12:04 15.6 30 19.5
002F05C8 2019-04-20 16:40:40 15.6 30 19.4
002F05C8 2019-04-20 16:09:17 15.6 30 19.4
002F05C8 2019-04-20 15:37:52 15.6 30 19.2
002F05C8 2019-04-20 15:06:28 15.6 30 19.2
002F05C8 2019-04-20 14:35:03 15.6 30 19.1
002F05C8 2019-04-20 14:03:38 15.6 30 19
002F05C8 2019-04-20 13:32:13 15.6 30 19
002F05C8 2019-04-20 13:00:47 15.6 30 18.9
002F05C8 2019-04-20 12:29:22 15.6 30 18.6
002F05C8 2019-04-20 11:57:57 15.6 29 18.7
002F05C8 2019-04-20 11:26:33 15.7 29 18.9
002F05C8 2019-04-20 10:55:07 15.7 29 18.9
002F05C8 2019-04-20 10:23:42 15.8 29 18.8
002F05C8 2019-04-20 09:52:18 15.8 29 18.8
002F05C8 2019-04-20 09:20:53 15.8 29 18.8
002F05C8 2019-04-20 08:49:31 15.8 29 18.8
002F05C8 2019-04-20 08:18:04 15.8 29 18.8
002F05C8 2019-04-20 07:46:40 15.8 29 18.6
002F05C8 2019-04-20 07:15:16 15.8 29 18.7
002F05C8 2019-04-20 06:43:54 15.8 29 18.7
002F05C8 2019-04-20 06:12:28 15.8 29 18.7
002F05C8 2019-04-20 05:41:04 15.8 29 18.8
002F05C8 2019-04-20 05:09:40 15.9 29 18.9
002F05C8 2019-04-20 04:38:16 15.9 29 19.1
002F05C8 2019-04-20 04:06:53 15.9 29 19.2
002F05C8 2019-04-20 03:35:29 16 29 19.3
002F05C8 2019-04-20 03:04:05 16 29 19.4
002F05C8 2019-04-20 02:32:38 16 29 19.5
002F05C8 2019-04-20 02:01:13 16 29 19.5
002F05C8 2019-04-20 01:29:49 16 29 19.5
002F05C8 2019-04-20 00:58:24 16 29 19.5
002F05C8 2019-04-20 00:26:59 16 29 19.5
002F05C8 2019-04-19 23:55:33 16 29 19.7
002F05C8 2019-04-19 23:24:10 16 29 19.8
002F05C8 2019-04-19 22:52:46 16 29 19.8
002F05C8 2019-04-19 22:21:23 16 29 19.7
002F05C8 2019-04-19 21:49:58 16.1 29 19.7
002F05C8 2019-04-19 21:18:34 16 29 19.6
002F05C8 2019-04-19 20:47:11 16.1 29 19.7
002F05C8 2019-04-19 20:15:48 16 29 19.6
002F05C8 2019-04-19 19:44:25 16 29 19.5
002F05C8 2019-04-19 19:13:02 16 29 19.3
002F05C8 2019-04-19 18:41:39 16 29 19.3
002F05C8 2019-04-19 18:10:17 16 29 19.2
002F05C8 2019-04-19 17:38:54 16 29 19.1
002F05C8 2019-04-19 17:07:30 16 29 19.1
002F05C8 2019-04-19 16:36:07 16 29 19
002F05C8 2019-04-19 16:04:43 16 29 19
002F05C8 2019-04-19 15:33:19 16 29 18.7
002F05C8 2019-04-19 15:01:55 16 29 18.5
002F05C8 2019-04-19 14:30:31 16 29 18.3
002F05C8 2019-04-19 13:59:06 16 28 18
002F05C8 2019-04-19 13:27:42 16 28 18
002F05C8 2019-04-19 12:56:18 16 28 18
002F05C8 2019-04-19 12:24:53 16 28 18.1
002F05C8 2019-04-19 11:53:29 16 28 18
002F05C8 2019-04-19 11:22:05 16 28 17.9
002F05C8 2019-04-19 10:50:41 16 28 17.8
002F05C8 2019-04-19 10:19:19 16 28 17.6
002F05C8 2019-04-19 09:47:52 16 28 17.7
002F05C8 2019-04-19 09:16:29 16 28 17.7
002F05C8 2019-04-19 08:45:07 16 28 17.8
002F05C8 2019-04-19 08:13:43 16 28 17.9
002F05C8 2019-04-19 07:42:19 16 28 18
002F05C8 2019-04-19 07:10:55 16 28 18.1
002F05C8 2019-04-19 06:39:32 16.1 28 18.2
002F05C8 2019-04-19 06:08:09 16.2 28 18.2
002F05C8 2019-04-19 05:36:46 16.2 28 18.2
002F05C8 2019-04-19 05:05:23 16.3 28 18.8
002F05C8 2019-04-19 04:34:00 16.3 28 19.1
002F05C8 2019-04-19 04:02:36 16.3 28 19.5
002F05C8 2019-04-19 03:31:12 16.3 28 19.9
002F05C8 2019-04-19 02:59:49 16.3 28 20.1
002F05C8 2019-04-19 02:28:27 16.3 28 20.1
002F05C8 2019-04-19 01:57:06 16.5 28 20.3
002F05C8 2019-04-19 01:25:41 16.5 28 20.6
002F05C8 2019-04-19 00:54:17 16.5 28 21.1
002F05C8 2019-04-19 00:22:55 16.5 28 21.3
002F05C8 2019-04-18 23:51:32 16.5 28 21.6
002F05C8 2019-04-18 23:20:09 16.5 28 21.9
002F05C8 2019-04-18 22:48:45 16.5 28 22.1
002F05C8 2019-04-18 22:17:22 16.5 28 22.1
002F05C8 2019-04-18 21:45:59 16.5 28 22
002F05C8 2019-04-18 21:14:35 16.5 28 22.1
002F05C8 2019-04-18 20:43:10 16.5 28 22
002F05C8 2019-04-18 20:11:45 16.5 28 22
002F05C8 2019-04-18 19:40:20 16.5 28 21.9
002F05C8 2019-04-18 19:08:55 16.5 28 21.8
002F05C8 2019-04-18 18:37:30 16.5 28 21.7
002F05C8 2019-04-18 18:06:06 16.5 28 21.6
002F05C8 2019-04-18 17:34:41 16.5 28 21.5
002F05C8 2019-04-18 17:03:17 16.4 27 21.5
002F05C8 2019-04-18 16:31:53 16.4 27 21.5
002F05C8 2019-04-18 16:00:27 16.3 27 21.2
002F05C8 2019-04-18 15:29:02 16.4 27 20.9
002F05C8 2019-04-18 14:57:38 16.3 27 20.6
002F05C8 2019-04-18 14:26:14 16.3 27 20.2
002F05C8 2019-04-18 13:54:50 16.3 27 19.9
002F05C8 2019-04-18 13:23:26 16.3 27 19.9
002F05C8 2019-04-18 12:52:01 16.3 27 19.7
002F05C8 2019-04-18 12:20:37 16.3 27 19.3
002F05C8 2019-04-18 11:49:11 16.3 27 18.6
002F05C8 2019-04-18 11:17:47 16.3 27 18
002F05C8 2019-04-18 10:46:23 16.3 27 17.3
002F05C8 2019-04-18 10:15:00 16.3 27 16.6
002F05C8 2019-04-18 09:43:37 16.4 27 16
002F05C8 2019-04-18 09:12:14 16.4 27 16.2
002F05C8 2019-04-18 08:40:50 16.5 27 16.1
002F05C8 2019-04-18 08:09:27 16.5 27 16
002F05C8 2019-04-18 07:38:03 16.5 27 16.2
002F05C8 2019-04-18 07:06:38 16.5 27 16.1
002F05C8 2019-04-18 06:35:15 16.5 27 16.3
002F05C8 2019-04-18 06:03:51 16.5 27 16.4
002F05C8 2019-04-18 05:32:28 16.5 27 16.7
002F05C8 2019-04-18 05:01:04 16.5 26 17.7
002F05C8 2019-04-18 04:29:42 16.5 26 18.6
002F05C8 2019-04-18 03:58:18 16.6 26 18.8
002F05C8 2019-04-18 03:26:55 16.7 26 18.8
002F05C8 2019-04-18 02:55:31 16.7 26 19.4
002F05C8 2019-04-18 02:24:07 16.7 26 19.9
002F05C8 2019-04-18 01:52:47 16.7 26 20
002F05C8 2019-04-18 01:21:22 16.8 26 20.1
002F05C8 2019-04-18 00:49:59 16.9 26 20.1
002F05C8 2019-04-18 00:18:35 16.9 26 20.2
002F05C8 2019-04-17 23:47:12 16.9 26 20.2
002F05C8 2019-04-17 23:15:48 16.9 26 20.2
002F05C8 2019-04-17 22:44:25 16.9 26 20.3
002F05C8 2019-04-17 22:13:03 16.9 26 20.3
002F05C8 2019-04-17 21:41:40 16.9 26 20.3
002F05C8 2019-04-17 21:10:18 16.9 26 20.4
002F05C8 2019-04-17 20:38:56 16.9 26 20.4
002F05C8 2019-04-17 20:07:35 16.9 26 20.4
002F05C8 2019-04-17 19:36:11 16.9 26 20.4
002F05C8 2019-04-17 19:04:48 16.9 26 20.3
002F05C8 2019-04-17 18:33:26 16.9 26 20.3
002F05C8 2019-04-17 18:02:07 16.9 25 20.3
002F05C8 2019-04-17 17:30:42 17.1 25 20.4
002F05C8 2019-04-17 16:59:19 17.1 25 20.4
002F05C8 2019-04-17 16:27:55 17.1 25 21.7
002F05C8 2019-04-17 15:56:33 17.1 25 21.3
002F05C8 2019-04-17 15:25:10 17.1 25 20.9
002F05C8 2019-04-17 14:53:48 17.1 25 21
002F05C8 2019-04-17 14:22:24 17.2 25 21.1
002F05C8 2019-04-17 13:51:02 17.3 25 20.8
002F05C8 2019-04-17 12:48:15 17.3 25 20.5
002F05C8 2019-04-17 12:16:51 17.3 25 20.5
002F05C8 2019-04-17 11:45:27 17.5 25 20.3
002F05C8 2019-04-17 11:14:04 17.5 25 20.3
002F05C8 2019-04-17 10:42:41 17.5 25 20.2
002F05C8 2019-04-17 10:11:18 17.6 25 20.1
002F05C8 2019-04-17 09:39:56 17.8 25 20.2
002F05C8 2019-04-17 09:08:34 17.8 25 20.1
002F05C8 2019-04-17 08:37:10 17.9 25 20.1
002F05C8 2019-04-17 08:05:47 18 25 20
002F05C8 2019-04-17 07:34:24 18 25 19.7
002F05C8 2019-04-17 07:03:01 18.1 25 19.6
002F05C8 2019-04-17 06:31:38 18.2 24 19.6
002F05C8 2019-04-17 06:00:16 18.2 24 19.5
002F05C8 2019-04-17 05:28:53 18.3 24 19.7
002F05C8 2019-04-17 04:57:30 18.4 24 19.7
002F05C8 2019-04-17 04:26:08 18.4 24 20
002F05C8 2019-04-17 03:54:47 18.5 24 19.9
002F05C8 2019-04-17 03:23:25 18.6 24 19.8
002F05C8 2019-04-17 02:52:05 18.6 24 17.5
002F05C8 2019-04-17 02:20:42 18.6 24 17.5
002F05C8 2019-04-17 01:49:19 18.7 24 17.3
002F05C8 2019-04-17 01:17:57 18.8 24 17
002F05C8 2019-04-17 00:46:34 18.8 24 16.6
002F05C8 2019-04-17 00:15:11 18.9 24 16.5
002F05C8 2019-04-16 23:43:48 19 24 16.3
002F05C8 2019-04-16 23:12:28 19.1 24 16.4
002F05C8 2019-04-16 22:41:07 19.2 24 16.4
002F05C8 2019-04-16 22:09:45 19.4 24 16.5
002F05C8 2019-04-16 21:38:27 19.5 24 16.9
002F05C8 2019-04-16 21:07:03 19.7 24 16.9
002F05C8 2019-04-16 20:35:39 19.7 24 16.8
002F05C8 2019-04-16 20:04:17 19.7 24 16.8
002F05C8 2019-04-16 19:32:55 19.9 24 17
002F05C8 2019-04-16 19:01:33 19.9 24 17.2
002F05C8 2019-04-16 18:30:11 19.9 24 17.4
002F05C8 2019-04-16 17:58:48 20.1 24 17.4
002F05C8 2019-04-16 16:56:01 20.3 24 17.5
002F05C8 2019-04-16 16:24:37 20.5 24 17.5
002F05C8 2019-04-16 15:53:13 20.5 24 17
002F05C8 2019-04-16 15:21:49 20.7 24 16.9
002F05C8 2019-04-16 14:50:26 20.7 24 16.3
002F05C8 2019-04-16 14:19:02 21 24 16.2
002F05C8 2019-04-16 13:47:41 21 24 16.3
002F05C8 2019-04-16 13:16:18 20.9 24 16.3
002F05C8 2019-04-16 12:44:54 20.9 24 16.3
002F05C8 2019-04-16 11:42:12 20.8 24 16.3
002F05C8 2019-04-16 11:10:47 20.7 24 16.4
002F05C8 2019-04-16 10:39:25 20.7 24 16.4
002F05C8 2019-04-16 10:08:05 20.7 24 16.3
002F05C8 2019-04-16 09:36:43 20.7 24 16.1
002F05C8 2019-04-16 09:05:18 20.7 24 16
002F05C8 2019-04-16 08:33:58 20.7 24 16
002F05C8 2019-04-16 08:02:40 20.7 23 16
002F05C8 2019-04-16 06:59:54 20.7 23 15.6
002F05C8 2019-04-16 06:28:33 20.7 23 15.5
002F05C8 2019-04-16 05:57:14 20.7 23 15.3
002F05C8 2019-04-16 05:25:54 20.7 23 15.4
002F05C8 2019-04-16 04:54:30 20.7 23 15.1
002F05C8 2019-04-16 03:51:49 20.8 23 14.7
002F05C8 2019-04-16 03:20:26 20.9 23 14.7
002F05C8 2019-04-16 02:49:05 21 23 14.6
002F05C8 2019-04-16 02:17:44 21 23 14.3
002F05C8 2019-04-16 01:46:23 21 23 14.3
002F05C8 2019-04-16 01:15:02 21 23 14.7
002F05C8 2019-04-16 00:43:41 21 23 15.6
002F05C8 2019-04-16 00:12:19 21 22 17.5
002F05C8 2019-04-15 23:40:57 21 22 18.4
002F05C8 2019-04-15 23:09:35 21 22 18.9
002F05C8 2019-04-15 22:38:12 21 22 19.5
002F05C8 2019-04-15 22:06:47 21.1 22 19.8
002F05C8 2019-04-15 21:35:23 21.1 22 20.3
002F05C8 2019-04-15 21:04:00 21.2 22 20.9
002F05C8 2019-04-15 20:32:36 21.2 22 21.3
002F05C8 2019-04-15 20:01:12 21.2 21 21.7
002F05C8 2019-04-15 19:29:49 21.2 21 22
002F05C8 2019-04-15 18:58:26 21.4 21 22.5
002F05C8 2019-04-15 18:27:02 21.4 21 22.8
002F05C8 2019-04-15 17:55:41 21.4 21 23.2
002F05C8 2019-04-15 17:24:18 21.4 21 23.6
002F05C8 2019-04-15 16:52:55 21.6 21 23.8
002F05C8 2019-04-15 16:21:33 21.6 20 24
002F05C8 2019-04-15 15:50:09 21.7 20 24.1
002F05C8 2019-04-15 15:18:49 21.8 20 24.3
002F05C8 2019-04-15 14:47:28 21.9 20 24.4
002F05C8 2019-04-15 14:16:10 22 20 24.6
002F05C8 2019-04-15 13:44:47 22.1 19 24.9
002F05C8 2019-04-15 13:13:31 22.2 19 25
002F05C8 2019-04-15 12:42:08 22.2 19 25.2
002F05C8 2019-04-15 12:10:45 22.5 18 25.3
002F05C8 2019-04-15 11:39:24 22.5 17 25.3
002F05C8 2019-04-15 11:08:03 22.5 17 25.3
002F05C8 2019-04-15 10:36:42 22.4 18 25.4
002F05C8 2019-04-15 10:05:20 22.3 18 25.4
002F05C8 2019-04-15 09:33:59 22.2 18 25.4
002F05C8 2019-04-15 09:02:38 22.2 18 25.6
002F05C8 2019-04-15 08:31:16 22 18 25.8
002F05C8 2019-04-15 07:59:55 22 18 25.8
002F05C8 2019-04-15 07:28:35 21.9 18 25.9
002F05C8 2019-04-15 06:57:15 21.9 18 25.8
002F05C8 2019-04-15 06:25:53 21.8 18 25.8
002F05C8 2019-04-15 05:54:31 21.8 18 25.7
002F05C8 2019-04-15 05:23:10 21.8 18 25.6
002F05C8 2019-04-15 04:51:48 21.8 18 25.5
002F05C8 2019-04-15 04:20:27 21.8 18 25.5
002F05C8 2019-04-15 03:49:05 21.8 18 25.5
002F05C8 2019-04-15 03:17:43 21.8 18 25.6
002F05C8 2019-04-15 02:46:22 21.8 19 25.6
002F05C8 2019-04-15 02:15:01 21.8 19 25.7
002F05C8 2019-04-15 01:43:42 21.8 19 25.7
002F05C8 2019-04-15 01:12:21 21.8 19 25.6
002F05C8 2019-04-15 00:41:00 21.8 19 25.5
002F05C8 2019-04-15 00:09:39 21.8 19 25.5
002F05C8 2019-04-14 23:38:18 21.8 19 25.4
002F05C8 2019-04-14 23:06:56 21.8 19 25.4
002F05C8 2019-04-14 22:35:35 21.9 19 25.5
002F05C8 2019-04-14 22:04:13 22 19 25.5
002F05C8 2019-04-14 21:32:51 22 19 25.5
002F05C8 2019-04-14 21:01:29 22 19 25.5
002F05C8 2019-04-14 20:30:07 22 19 25.5
002F05C8 2019-04-14 19:58:44 22 19 25.3
002F05C8 2019-04-14 19:27:22 22 19 25.2
002F05C8 2019-04-14 18:56:01 22 19 25.1
002F05C8 2019-04-14 18:24:39 22 19 25
002F05C8 2019-04-14 17:53:18 22 19 25.2
002F05C8 2019-04-14 17:21:56 21.9 19 25.3
002F05C8 2019-04-14 16:50:33 22 19 25.3
002F05C8 2019-04-14 16:19:11 22 19 25.4
002F05C8 2019-04-14 15:47:48 22 19 25.5
002F05C8 2019-04-14 15:16:26 22 19 25.5
002F05C8 2019-04-14 14:45:03 22 19 25.5
002F05C8 2019-04-14 14:13:41 22 19 25.4
002F05C8 2019-04-14 13:42:19 22 19 25.5
002F05C8 2019-04-14 13:10:58 22 19 25.5
002F05C8 2019-04-14 12:39:37 22 19 25.6
002F05C8 2019-04-14 12:08:15 22 20 25.7
002F05C8 2019-04-14 11:36:55 22 20 25.8
002F05C8 2019-04-14 11:05:34 22 20 25.8
002F05C8 2019-04-14 10:34:12 22 20 26.1
002F05C8 2019-04-14 10:02:50 22 19 26.1
002F05C8 2019-04-14 09:31:30 22 19 26.1
002F05C8 2019-04-14 09:00:10 22 19 26.1
002F05C8 2019-04-14 08:28:49 22 19 26.1
002F05C8 2019-04-14 07:57:28 22 19 26.2
002F05C8 2019-04-14 07:26:07 21.9 19 26.1
002F05C8 2019-04-14 06:54:47 21.9 19 26.2
002F05C8 2019-04-14 06:23:26 21.9 19 26.1
002F05C8 2019-04-14 05:52:06 22 19 26.1
002F05C8 2019-04-14 05:20:46 21.9 19 26.4
002F05C8 2019-04-14 04:49:26 22 19 26.3
002F05C8 2019-04-14 04:18:06 22 19 26.2
002F05C8 2019-04-14 03:46:47 22 19 26.2
002F05C8 2019-04-14 03:15:27 22 19 26.2
002F05C8 2019-04-14 02:44:08 22 19 26.1
002F05C8 2019-04-14 02:12:48 22 19 26
002F05C8 2019-04-14 01:41:28 22 19 26.1
002F05C8 2019-04-14 01:10:08 22 19 26.1
002F05C8 2019-04-14 00:38:46 22 19 26
002F05C8 2019-04-14 00:07:25 22 19 26
002F05C8 2019-04-13 23:36:06 22 19 25.9
002F05C8 2019-04-13 23:04:45 22 19 26.2
002F05C8 2019-04-13 22:33:26 22 19 26.2
002F05C8 2019-04-13 22:02:05 22.1 19 26.2
002F05C8 2019-04-13 21:30:44 22.2 19 25.9
002F05C8 2019-04-13 20:59:25 22.2 19 26
002F05C8 2019-04-13 20:28:06 22.2 19 26
002F05C8 2019-04-13 19:56:43 22.2 19 26
002F05C8 2019-04-13 19:25:21 22.2 19 25.9
002F05C8 2019-04-13 18:54:02 22.2 19 26.1
002F05C8 2019-04-13 18:22:40 22.2 19 26.1
002F05C8 2019-04-13 17:51:19 22.2 19 26.1
002F05C8 2019-04-13 17:19:57 22.2 19 26.1
002F05C8 2019-04-13 16:48:37 22.2 19 26.2
002F05C8 2019-04-13 16:17:15 22.3 19 25.9
002F05C8 2019-04-13 15:45:53 22.3 19 25.9
002F05C8 2019-04-13 15:14:32 22.3 19 26
002F05C8 2019-04-13 14:43:10 22.4 19 26
002F05C8 2019-04-13 14:11:49 22.4 19 26
002F05C8 2019-04-13 13:40:28 22.5 19 26
002F05C8 2019-04-13 13:09:08 22.5 19 26.1
002F05C8 2019-04-13 12:37:48 22.5 19 25.9
002F05C8 2019-04-13 12:06:26 22.5 19 26.1
002F05C8 2019-04-13 11:35:05 22.5 19 26.1
002F05C8 2019-04-13 11:03:42 22.5 19 26.1
002F05C8 2019-04-13 10:32:21 22.4 19 26.1
002F05C8 2019-04-13 10:01:00 22.5 19 25.7
002F05C8 2019-04-13 09:29:37 22.4 19 25.8
002F05C8 2019-04-13 08:58:15 22.5 19 26
002F05C8 2019-04-13 08:26:52 22.4 19 26
002F05C8 2019-04-13 07:55:30 22.4 19 25.9
002F05C8 2019-04-13 07:24:08 22.4 18 25.9
002F05C8 2019-04-13 06:52:46 22.4 18 25.9
002F05C8 2019-04-13 06:21:25 22.5 19 26.1
002F05C8 2019-04-13 05:50:04 22.4 18 25.8
002F05C8 2019-04-13 05:18:43 22.5 19 25.7
002F05C8 2019-04-13 04:47:22 22.5 18 25.7
002F05C8 2019-04-13 04:16:02 22.5 19 25.6
002F05C8 2019-04-13 03:44:41 22.5 19 25.5
002F05C8 2019-04-13 03:13:19 22.5 19 25.8
002F05C8 2019-04-13 02:41:58 22.5 19 26.1
002F05C8 2019-04-13 02:10:37 22.5 19 26
002F05C8 2019-04-13 01:39:16 22.5 19 25.9
002F05C8 2019-04-13 01:07:54 22.6 19 25.9
002F05C8 2019-04-13 00:36:33 22.6 19 25.9
002F05C8 2019-04-13 00:05:11 22.7 19 25.9
002F05C8 2019-04-12 23:33:49 22.7 19 26
002F05C8 2019-04-12 23:02:27 22.7 19 25.9
002F05C8 2019-04-12 22:31:06 22.8 20 25.9
002F05C8 2019-04-12 21:59:45 22.9 20 25.9
002F05C8 2019-04-12 21:28:24 22.9 20 26
002F05C8 2019-04-12 20:57:02 22.9 20 26.1
002F05C8 2019-04-12 20:25:41 22.9 20 26.1
002F05C8 2019-04-12 19:54:19 22.9 19 25.8
002F05C8 2019-04-12 19:22:57 22.9 19 25.9
002F05C8 2019-04-12 18:51:35 23.1 18 25.9
002F05C8 2019-04-12 18:20:14 23.1 18 25.9
002F05C8 2019-04-12 17:48:52 23.2 18 26.1
002F05C8 2019-04-12 17:17:30 23.3 19 25.8
002F05C8 2019-04-12 16:46:10 23.3 20 25.8
002F05C8 2019-04-12 16:14:49 23.1 20 26
002F05C8 2019-04-12 15:43:28 23.1 20 26.4
002F05C8 2019-04-12 15:12:06 22.9 20 27
002F05C8 2019-04-12 14:40:45 22.7 21 27.5
002F05C8 2019-04-12 14:09:23 22.5 21 26.2
002F05C8 2019-04-12 13:38:00 22 22 20.9
002F05C8 2019-04-12 13:06:39 21.4 25 21.8